Weather in Londolovit

Papua New Guinea     3°04′41″S   152°37′59″E
temp.,
°C
wind,
m/s
gust,
m/s
humid.,
%
clouds,
%
prec.,
mm/h
press.,
hPa
HPBL,
m
9 march, tue
tue901:00+28e5574100 2.8 1010685
04:00+28e557583 3.1 1009799
07:00+28e557222 0.0 1011969
10:00+29e447127 0.0 1011969
13:00+29ese4470100 0.1 1009916
16:00+29e5573100 0.2 1008945
19:00+28e567610 0.1 1010777
22:00+29e66755 0.1 1011969
10 march, wed
wed1001:00+28e567629 0.1 1010830
04:00+28e667663 0.2 1010744
07:00+28e6671100 0.0 1012815
10:00+28e667099 0.0 1012958
13:00+29e4567100 0.0 1010985
16:00+29ene346592 0.0 1008996
19:00+29ene456798 0.0 1011974
22:00+29ene446899 0.0 10121079
11 march, thu
thu1101:00+29ene336987 0.0 1010881
04:00+28ese437294 0.1 1010724
07:00+27se447099 0.2 1012238
10:00+28sse336899 0.2 1013300
13:00+28sse337089 0.0 1010506
16:00+28ese337077 0.0 1010665
19:00+28ese337215 0.0 1011780
22:00+28ese337245 0.0 1012704
12 march, fri
fri1201:00+28ese447381 0.2 1011699
04:00+28e447485 0.5 1010645
07:00+28e557561 0.6 1011690
10:00+28e557673 1.0 1012749
13:00+28ene447377 0.3 1009829
16:00+29ene447270 0.3 1009843
19:00+29ene557345 0.1 1010858
22:00+29ene557229 0.1 1011933
13 march, sat
sat1301:00+28ene457027 0.0 10101011
04:00+28ene547061 0.1 1009987
07:00+28ene446480 0.0 10111105
10:00+29ene446461 0.0 10111114
13:00+29ne33610 0.0 10091136
16:00+29ne33600 0.0 10081132
19:00+29ne33630 0.0 10101088
22:00+29ne33627 0.0 10111084